• Join FlightAware (Why Join?)
  • Login
  • US Flag GB Flag 
06:35 EST


 

Airport Tracker/Info


-or-


 

Live Flight TrackerFlight Track Log ✈ SWA311 ✈ 21-Apr-2013 ✈ KHOU - KPIT

Flight Track Log - Related Links

Times and Time Zones

All times are in EDT time to prevent confusion due to time zone crossing. See the SWA311 flight status page for this flight to view local times or setup timezone preferences in your user account.

Time Position Orientation Groundspeed Altitude Reporting Facility
EDT Latitude Longitude Course Direction KTS MPH feet Rate Location/Type
15:24 29.6544 -95.2675 20° North 168 193 400  Level Houston Center
15:25 29.6867 -95.2539 20° North 186 214 1,800 2,280 Climbing Houston Center
15:26 29.7403 -95.2883 331° Northwest 235 270 4,400 2,220 Climbing Houston Center
15:27 29.7961 -95.3150 337° Northwest 234 269 6,500 2,400 Climbing Houston Center
15:28 29.8836 -95.3386 347° North 287 330 9,400 2,400 Climbing Houston Center
15:29 29.9697 -95.3103 16° North 326 375 11,500 2,520 Climbing Houston Center
15:30 30.0492 -95.2428 36° Northeast 352 405 14,800 2,940 Climbing Houston Center
15:31 30.1403 -95.1836 29° Northeast 371 427 17,600 2,640 Climbing Houston Center
15:32 30.2328 -95.1169 32° Northeast 388 447 20,300 2,400 Climbing Houston Center
15:33 30.3300 -95.0497 31° Northeast 403 464 22,600 2,340 Climbing Houston Center
15:34 30.4417 -94.9700 32° Northeast 425 489 25,200 2,160 Climbing Houston Center
15:35 30.5453 -94.8975 31° Northeast 433 498 27,100 1,680 Climbing Houston Center
15:36 30.6494 -94.8178 33° Northeast 446 513 28,800 1,740 Climbing Houston Center
15:37 30.7789 -94.7186 33° Northeast 468 539 30,800 1,920 Climbing Houston Center
15:38 30.8853 -94.6353 34° Northeast 463 533 32,800 1,800 Climbing Houston Center
15:39 30.9253 -94.6044 33° Northeast 466 536 33,500 1,620 Climbing Fort Worth Center
15:40 31.0300 -94.5214 34° Northeast 447 514 35,200 1,260 Climbing Fort Worth Center
15:41 31.1489 -94.4328 33° Northeast 447 514 36,100 900 Climbing Fort Worth Center
15:42 31.2472 -94.3542 34° Northeast 453 521 37,000 1,020 Climbing Fort Worth Center
15:43 31.3558 -94.2706 33° Northeast 460 529 38,200 960 Climbing Fort Worth Center
15:44 31.4622 -94.1864 34° Northeast 460 529 39,000 360 Climbing Fort Worth Center
15:45 31.5747 -94.0997 33° Northeast 465 535 39,000  Level Fort Worth Center
15:46 31.6914 -94.0075 34° Northeast 465 535 39,000  Level Fort Worth Center
15:47 31.7975 -93.9231 34° Northeast 465 535 39,000  Level Fort Worth Center
15:48 31.9058 -93.8381 34° Northeast 460 529 39,000  Level Fort Worth Center
15:49 32.0039 -93.7583 35° Northeast 460 529 39,000  Level Fort Worth Center
15:50 32.1181 -93.6706 33° Northeast 455 524 39,000  Level Fort Worth Center
15:51 32.2217 -93.5778 37° Northeast 460 529 39,000  Level Fort Worth Center
15:52 32.3300 -93.4944 33° Northeast 460 529 39,000  Level Fort Worth Center
15:53 32.4358 -93.4086 34° Northeast 460 529 39,000  Level Fort Worth Center
15:54 32.5414 -93.3228 34° Northeast 460 529 39,000  Level Fort Worth Center
15:56 32.7569 -93.1475 34° Northeast 460 529 39,000  Level Fort Worth Center
15:58 32.9703 -92.9794 33° Northeast 479 551 39,000  Level Memphis Center
15:59 33.0806 -92.8911 34° Northeast 473 544 39,000  Level Memphis Center
16:00 33.1867 -92.8022 35° Northeast 473 544 39,000  Level Memphis Center
16:01 33.2867 -92.7008 40° Northeast 473 544 39,000  Level Memphis Center
16:02 33.3747 -92.5711 51° Northeast 480 552 39,000  Level Memphis Center
16:03 33.4583 -92.4414 52° Northeast 486 559 39,000  Level Memphis Center
16:04 33.5419 -92.3086 53° Northeast 492 566 39,000  Level Memphis Center
16:05 33.6272 -92.1833 51° Northeast 492 566 39,000  Level Memphis Center
16:06 33.7125 -92.0553 51° Northeast 487 560 39,000  Level Memphis Center
16:07 33.7978 -91.9244 52° Northeast 481 554 39,000  Level Memphis Center
16:08 33.8786 -91.7958 53° Northeast 481 554 39,000  Level Memphis Center
16:09 33.9592 -91.6669 53° Northeast 476 548 39,000  Level Memphis Center
16:10 34.0442 -91.5328 53° Northeast 486 559 39,000  Level Memphis Center
16:11 34.1286 -91.4061 51° Northeast 486 559 39,000  Level Memphis Center
16:12 34.2111 -91.2764 52° Northeast 486 559 39,000  Level Memphis Center
16:13 34.2956 -91.1417 53° Northeast 486 559 39,000  Level Memphis Center
16:14 34.3861 -90.9989 52° Northeast 486 559 39,000  Level Memphis Center
16:15 34.4700 -90.8661 53° Northeast 491 565 39,000  Level Memphis Center
16:16 34.5542 -90.7278 54° Northeast 486 559 39,000  Level Memphis Center
16:17 34.6358 -90.5969 53° Northeast 486 559 39,000  Level Memphis Center
16:18 34.7172 -90.4658 53° Northeast 486 559 39,000  Level Memphis Center
16:19 34.8008 -90.3294 53° Northeast 492 566 39,000  Level Memphis Center
16:20 34.8842 -90.1950 53° Northeast 492 566 39,000  Level Memphis Center
16:21 34.9611 -90.0758 52° Northeast 492 566 39,000  Level Memphis Center
16:22 35.0442 -89.9411 53° Northeast 492 566 39,000  Level Memphis Center
16:23 35.1228 -89.8011 56° Northeast 497 572 39,000  Level Memphis Center
16:24 35.2097 -89.6456 56° Northeast 497 572 39,000  Level Memphis Center
16:25 35.2839 -89.5100 56° Northeast 497 572 39,000  Level Memphis Center
16:26 35.3622 -89.3692 56° Northeast 495 570 39,000  Level Memphis Center
16:27 35.4381 -89.2333 56° Northeast 489 563 39,000  Level Memphis Center
16:28 35.5142 -89.0969 56° Northeast 479 551 39,000  Level Memphis Center
16:29 35.5878 -88.9631 56° Northeast 479 551 39,000  Level Memphis Center
16:30 35.6633 -88.8264 56° Northeast 479 551 39,000  Level Memphis Center
16:31 35.7364 -88.6869 57° Northeast 479 551 39,000  Level Memphis Center
16:32 35.8117 -88.5497 56° Northeast 479 551 39,000  Level Memphis Center
16:33 35.8889 -88.4097 56° Northeast 484 557 39,000  Level Memphis Center
16:34 35.9658 -88.2719 55° Northeast 489 563 39,000  Level Memphis Center
16:35 36.0406 -88.1314 57° Northeast 489 563 39,000  Level Memphis Center
16:36 36.1092 -88.0061 56° Northeast 483 556 39,000  Level Memphis Center
16:37 36.1856 -87.8653 56° Northeast 494 568 39,000  Level Memphis Center
16:38 36.2678 -87.7083 57° Northeast 494 568 39,000  Level Memphis Center
16:39 36.3439 -87.5692 56° Northeast 487 560 39,000  Level Memphis Center
16:40 36.4178 -87.4272 57° Northeast 492 566 39,000  Level Memphis Center
16:41 36.4936 -87.2853 56° Northeast 492 566 39,000  Level Memphis Center
16:42 36.5692 -87.1428 57° Northeast 492 566 39,000  Level Memphis Center
16:43 36.6425 -86.9950 58° Northeast 492 566 39,000  Level Memphis Center
16:44 36.7033 -86.8606 61° Northeast 492 566 39,000  Level Memphis Center
16:45 36.7700 -86.7128 61° Northeast 492 566 39,000  Level Memphis Center
16:46 36.8383 -86.5617 60° Northeast 492 566 39,000  Level Memphis Center
16:47 36.9044 -86.4108 61° Northeast 492 566 39,000  Level Memphis Center
16:48 37.0219 -86.1528 60° Northeast 502 578 39,000  Level Indianapolis Center
16:49 37.0906 -85.9992 61° Northeast 499 574 39,000  Level Indianapolis Center
16:50 37.1578 -85.8469 61° Northeast 496 571 39,000  Level Indianapolis Center
16:51 37.2247 -85.6925 61° Northeast 499 574 39,000  Level Indianapolis Center
16:52 37.2931 -85.5400 61° Northeast 497 572 39,000  Level Indianapolis Center
16:53 37.3586 -85.3889 61° Northeast 494 568 39,000  Level Indianapolis Center
16:54 37.4256 -85.2342 61° Northeast 501 577 39,000  Level Indianapolis Center
16:55 37.5047 -85.0547 61° Northeast 501 577 39,000  Level Indianapolis Center
16:57 37.5714 -84.8997 61° Northeast 500 575 39,000  Level Indianapolis Center
16:58 37.6364 -84.7481 62° Northeast 493 567 39,000  Level Indianapolis Center
16:59 37.7022 -84.5953 61° Northeast 493 567 39,000  Level Indianapolis Center
17:00 37.7683 -84.4411 61° Northeast 495 570 39,000  Level Indianapolis Center
17:01 37.8325 -84.2878 62° Northeast 490 564 39,000  Level Indianapolis Center
17:02 37.9225 -84.1203 56° Northeast 493 567 39,000  Level Indianapolis Center
17:03 38.0103 -83.9914 49° Northeast 484 557 39,000  Level Indianapolis Center
17:04 38.0989 -83.8581 50° Northeast 489 563 39,000 -240 Level Indianapolis Center
17:05 38.1869 -83.7206 51° Northeast 495 570 38,600 -720 Descending Indianapolis Center
17:06 38.2761 -83.5861 50° Northeast 494 568 37,600 -960 Descending Indianapolis Center
17:07 38.3633 -83.4528 50° Northeast 490 564 36,700 -1,020 Descending Indianapolis Center
17:08 38.4633 -83.3006 50° Northeast 480 552 35,600 -1,020 Descending Indianapolis Center
17:09 38.5522 -83.1633 50° Northeast 496 571 34,600 -1,020 Descending Indianapolis Center
17:10 38.6389 -83.0272 51° Northeast 493 567 33,600 -1,080 Descending Indianapolis Center
17:11 38.7233 -82.8967 50° Northeast 471 542 32,500 -1,020 Descending Indianapolis Center
17:12 38.8047 -82.7703 50° Northeast 461 531 31,500 -1,020 Descending Indianapolis Center
17:13 38.8853 -82.6447 50° Northeast 454 522 30,500 -1,020 Descending Indianapolis Center
17:14 38.9644 -82.5203 51° Northeast 450 518 29,500 -840 Descending Indianapolis Center
17:15 39.0425 -82.3956 51° Northeast 447 514 28,800 -840 Descending Indianapolis Center
17:16 39.1281 -82.2603 51° Northeast 476 548 27,900 -1,020 Descending Indianapolis Center
17:17 39.2158 -82.1225 51° Northeast 490 564 26,800 -1,140 Descending Indianapolis Center
17:18 39.3147 -81.9633 51° Northeast 473 544 25,600 -1,080 Descending Indianapolis Center
17:19 39.3956 -81.8333 51° Northeast 463 533 24,600 -1,020 Descending Indianapolis Center
17:20 39.4767 -81.7047 51° Northeast 460 529 23,600 -1,020 Descending Indianapolis Center
17:21 39.5544 -81.5769 52° Northeast 451 519 22,600 -1,020 Descending Indianapolis Center
17:22 39.6303 -81.4547 51° Northeast 437 503 21,500 -1,200 Descending Indianapolis Center
17:23 39.6578 -81.4081 53° Northeast 448 516 21,100 -420 Descending Cleveland Center
17:24 39.7314 -81.2903 51° Northeast 433 498 21,000 -960 Descending Cleveland Center
17:25 39.8031 -81.1747 51° Northeast 428 493 19,200 -1,680 Descending Cleveland Center
17:26 39.8703 -81.0672 51° Northeast 406 467 17,700 -2,100 Descending Cleveland Center
17:27 39.9353 -80.9539 53° Northeast 395 455 15,100 -2,580 Descending Cleveland Center
17:28 40.0003 -80.8458 52° Northeast 389 448 12,600 -2,340 Descending Cleveland Center
17:29 40.0711 -80.7514 46° Northeast 379 436 10,500 -1,320 Descending Cleveland Center
17:30 40.1358 -80.6700 44° Northeast 344 396 10,000 -780 Descending Cleveland Center
17:31 40.2069 -80.6267 25° Northeast 291 335 9,000 -1,200 Descending Cleveland Center
17:32 40.2756 -80.5914 21° North 269 310 7,600 -1,440 Descending Cleveland Center
17:33 40.3464 -80.5558 21° North 264 304 6,200 -1,320 Descending Cleveland Center
17:34 40.4153 -80.5231 20° North 264 304 5,000 -1,020 Descending Cleveland Center
17:35 40.4569 -80.4794 39° Northeast 247 284 4,200 -720 Descending Cleveland Center
17:36 40.4944 -80.4083 55° Northeast 214 246 3,600 -840 Descending Cleveland Center
17:37 40.5047 -80.3564 75° East 164 189 2,600 -1,020 Descending Cleveland Center
17:39 40.4915 -80.2329 90° East  Level Estimated
17:46 40.4915 -80.2329 90° East  Level Estimated
17:47 40.4915 -80.2329 90° East  Level Estimated